Temp
-7 -7 -8 -8 -7 -5 -6 -6 -8 -5 -6 -4 -4 -4 -4 -4 -4 -3 -4 -3 -2 -2 -1 -1 -1 -1 -1 -0 -0 0 1 2 0 -0 0 1 1 2 3 3 3 3 4 4
-8 -7 -7 -7 -6 -7 -7 -7 -7 -6 -6 -6 -5 -4 -5 -4 -4 -4 -4 -2 -3 -2 -2 -2 -2 -1 -1 -1 -0 -0 0 1 0 0 0 0 0 1 2 2 3 3 3 4
-9 -9 -8 -7 -5 -6 -7 -7 -7 -7 -6 -6 -6 -5 -5 -5 -5 -5 -4 -3 -3 -3 -3 -3 -3 -2 -1 -2 -1 -1 -0 0 0 -1 -1 -0 0 1 2 1 1 2 3 3
-10 -9 -10 -6 -7 -7 -7 -7 -7 -8 -8 -7 -6 -6 -5 -5 -5 -6 -6 -6 -5 -4 -4 -4 -3 -4 -2 -2 -1 -2 -1 -1 -1 -0 -0 -0 0 0 1 1 1 2 2 3
-9 -9 -8 -7 -7 -7 -8 -8 -8 -7 -7 -7 -7 -6 -6 -5 -5 -6 -7 -7 -6 -5 -4 -4 -4 -4 -4 -3 -3 -2 -2 -1 -1 -1 -1 -1 -0 0 1 0 0 0 1 2
-10 -10 -11 -8 -8 -8 -8 -9 -8 -8 -8 -7 -7 -7 -7 -6 -6 -7 -8 -7 -6 -6 -5 -5 -5 -4 -4 -4 -4 -4 -2 -2 -2 -1 -1 -1 -1 -0 -0 0 0 0 0 0
-10 -9 -8 -8 -8 -8 -9 -9 -8 -8 -7 -7 -7 -7 -7 -7 -8 -8 -7 -7 -7 -6 -6 -6 -6 -5 -5 -5 -5 -4 -4 -4 -3 -3 -2 -2 -1 -1 -1 -1 -0 -0 -0 -1
-9 -9 -9 -9 -8 -9 -10 -9 -9 -8 -8 -7 -7 -8 -9 -8 -8 -7 -7 -7 -7 -7 -7 -6 -6 -6 -6 -5 -5 -5 -5 -5 -5 -4 -4 -3 -2 -2 -2 -1 -2 -2 -2 -1
-9 -9 -10 -10 -9 -9 -9 -9 -8 -8 -7 -8 -8 -8 -8 -8 -8 -7 -7 -7 -8 -7 -7 -7 -7 -7 -7 -6 -6 -6 -6 -6 -6 -6 -5 -5 -4 -4 -4 -4 -4 -4 -3 -3
-9 -9 -9 -9 -9 -9 -9 -8 -8 -8 -8 -8 -8 -8 -8 -8 -8 -8 -8 -8 -7 -7 -8 -8 -8 -8 -8 -7 -7 -7 -7 -7 -7 -7 -7 -7 -6 -6 -6 -6 -6 -6 -6 -6
-9 -9 -9 -9 -9 -9 -9 -8 -8 -8 -8 -8 -8 -8 -8 -8 -7 -7 -7 -8 -8 -8 -8 -8 -8 -8 -8 -8 -8 -8 -8 -8 -8 -7 -7 -7 -7 -7 -7 -7 -7 -7 -7 -7
-9 -9 -9 -9 -9 -9 -9 -9 -8 -8 -8 -8 -8 -8 -8 -8 -8 -8 -8 -8 -7 -8 -8 -8 -8 -8 -8 -8 -8 -8 -8 -8 -8 -8 -8 -7 -7 -7 -7 -8 -8 -8 -8 -8
-9 -9 -9 -9 -9 -9 -9 -9 -8 -8 -8 -8 -8 -8 -8 -8 -8 -8 -8 -8 -8 -8 -8 -8 -8 -8 -8 -8 -8 -8 -8 -8 -8 -8 -8 -8 -8 -8 -8 -8 -8 -8 -8 -9
-9 -9 -9 -9 -9 -9 -9 -9 -9 -8 -8 -8 -8 -8 -8 -8 -8 -8 -8 -8 -8 -8 -9 -9 -9 -9 -9 -9 -9 -9 -9 -9 -9 -9 -9 -9 -9 -9 -9 -9 -9 -9 -9 -9
-9 -9 -9 -9 -9 -9 -9 -9 -9 -8 -8 -8 -9 -9 -9 -9 -9 -9 -9 -9 -9 -9 -9 -9 -10 -10 -9 -9 -10 -10 -10 -10 -10 -10 -10 -10 -10 -10 -10 -10 -10 -10 -10 -10
-10 -10 -10 -10 -10 -9 -9 -8 -8 -8 -8 -9 -9 -8 -9 -9 -9 -9 -9 -9 -9 -10 -10 -10 -10 -10 -10 -10 -10 -10 -10 -11 -11 -11 -11 -11 -12 -11 -11 -12 -11 -12 -12 -12
-11 -10 -9 -9 -9 -9 -9 -9 -9 -9 -9 -9 -9 -9 -9 -9 -9 -10 -10 -10 -10 -10 -10 -10 -11 -11 -11 -11 -11 -11 -11 -12 -12 -12 -12 -12 -13 -13 -13 -13 -13 -13 -13 -13
-10 -10 -10 -9 -9 -9 -9 -9 -9 -9 -9 -9 -9 -9 -9 -10 -10 -10 -10 -10 -10 -11 -11 -11 -11 -12 -12 -12 -12 -13 -13 -13 -13 -13 -13 -13 -14 -14 -14 -14 -14 -14 -14 -14
-10 -10 -10 -10 -9 -9 -9 -9 -9 -10 -10 -10 -10 -10 -10 -10 -10 -10 -10 -11 -11 -11 -12 -12 -12 -13 -13 -13 -13 -14 -14 -14 -14 -14 -15 -15 -15 -15 -15 -15 -15 -15 -15 -15
-9 -10 -10 -9 -9 -10 -10 -10 -10 -10 -10 -10 -10 -10 -11 -11 -11 -11 -11 -12 -12 -13 -13 -13 -14 -14 -14 -14 -14 -15 -15 -15 -16 -16 -16 -16 -16 -16 -16 -16 -16 -16 -16 -16
-9 -9 -9 -10 -10 -10 -10 -10 -10 -10 -10 -10 -11 -11 -11 -11 -12 -12 -12 -13 -13 -14 -14 -14 -15 -15 -15 -16 -16 -16 -16 -17 -17 -17 -17 -17 -17 -18 -18 -18 -18 -17 -17 -17
-9 -9 -9 -9 -10 -9 -10 -10 -10 -10 -10 -11 -11 -12 -12 -12 -13 -13 -14 -14 -15 -15 -15 -16 -16 -17 -17 -17 -17 -18 -18 -18 -18 -18 -19 -19 -19 -19 -19 -19 -19 -19 -19 -19
-9 -9 -9 -9 -10 -10 -10 -10 -11 -11 -11 -12 -12 -13 -13 -14 -14 -15 -15 -15 -16 -16 -17 -17 -18 -18 -18 -19 -19 -19 -19 -19 -20 -20 -20 -20 -20 -20 -20 -20 -21 -21 -21 -21
-9 -9 -10 -10 -10 -10 -11 -11 -11 -12 -12 -12 -13 -13 -14 -15 -15 -16 -16 -17 -17 -18 -18 -19 -19 -19 -20 -20 -20 -20 -20 -21 -21 -21 -21 -21 -21 -21 -21 -21 -21 -21 -21 -21
-10 -10 -10 -10 -10 -11 -11 -12 -12 -13 -13 -13 -14 -14 -15 -16 -16 -17 -17 -18 -18 -19 -19 -20 -20 -20 -21 -21 -21 -21 -22 -22 -22 -22 -22 -22 -22 -22 -22 -22 -22 -22 -22 -22
-10 -10 -10 -10 -11 -11 -12 -13 -13 -13 -14 -14 -15 -15 -16 -16 -17 -18 -18 -19 -19 -20 -20 -21 -21 -21 -22 -22 -22 -23 -23 -23 -23 -23 -23 -23 -23 -23 -23 -23 -23 -23 -23 -23
-10 -11 -11 -11 -12 -12 -13 -13 -13 -14 -14 -15 -15 -16 -17 -17 -18 -19 -19 -20 -20 -21 -21 -22 -22 -22 -23 -23 -23 -24 -24 -24 -24 -24 -24 -24 -24 -24 -24 -24 -24 -24 -24 -24
Height
2991 2992 2992 2991 2992 2992 2993 2992 2993 2984 2983 2985 2985 2984 2982 2980 2977 2976 2974 2971 2967 2963 2958 2955 2953 2951 2949 2948 2948 2950 2952 2954 2956 2956 2958 2963 2969 2977 2982 2986 2989 2992 2996 2999
2986 2987 2986 2985 2985 2984 2985 2984 2980 2977 2973 2980 2978 2979 2978 2977 2974 2972 2970 2968 2965 2962 2958 2955 2952 2949 2949 2948 2947 2945 2948 2950 2950 2950 2952 2955 2953 2970 2976 2981 2984 2987 2990 2993
2982 2983 2982 2979 2977 2978 2978 2977 2972 2967 2968 2970 2971 2973 2974 2973 2971 2969 2967 2965 2963 2961 2958 2954 2951 2948 2946 2945 2946 2946 2946 2945 2945 2946 2947 2949 2953 2960 2971 2977 2979 2980 2984 2987
2981 2981 2981 2976 2975 2975 2973 2970 2965 2963 2964 2965 2966 2968 2969 2967 2966 2966 2966 2963 2961 2959 2957 2955 2952 2949 2947 2944 2944 2945 2944 2943 2944 2945 2945 2945 2951 2958 2965 2969 2973 2975 2978 2982
2979 2979 2977 2975 2973 2973 2970 2967 2965 2962 2961 2962 2962 2963 2963 2964 2964 2964 2964 2962 2961 2959 2957 2955 2953 2950 2947 2945 2944 2943 2943 2945 2945 2945 2946 2948 2949 2954 2958 2963 2967 2970 2973 2975
2979 2980 2979 2972 2972 2970 2967 2964 2962 2960 2959 2959 2959 2959 2960 2961 2962 2962 2963 2962 2960 2958 2956 2955 2953 2951 2949 2948 2946 2944 2943 2944 2944 2946 2946 2946 2946 2949 2952 2957 2961 2965 2968 2970
2978 2978 2974 2970 2968 2966 2966 2968 2960 2956 2956 2957 2957 2959 2959 2960 2961 2962 2962 2961 2960 2959 2957 2956 2955 2954 2952 2950 2949 2947 2944 2944 2944 2944 2945 2946 2947 2949 2947 2951 2955 2957 2962 2964
2976 2976 2974 2971 2967 2965 2966 2962 2959 2956 2956 2956 2957 2958 2959 2960 2961 2961 2960 2960 2960 2960 2959 2958 2957 2956 2955 2953 2950 2949 2948 2947 2946 2946 2946 2945 2946 2946 2946 2949 2949 2952 2954 2956
2976 2975 2972 2970 2968 2966 2964 2962 2960 2959 2958 2960 2960 2960 2961 2961 2961 2961 2962 2961 2960 2959 2958 2958 2957 2956 2956 2955 2954 2952 2950 2949 2949 2948 2947 2946 2947 2947 2946 2947 2947 2949 2950 2952
2974 2974 2972 2970 2969 2967 2965 2964 2964 2964 2964 2962 2963 2964 2963 2963 2964 2964 2963 2962 2961 2960 2959 2958 2957 2957 2956 2955 2955 2954 2952 2951 2951 2949 2948 2948 2947 2948 2946 2946 2947 2948 2948 2950
2973 2972 2972 2971 2970 2969 2968 2968 2968 2967 2968 2968 2967 2967 2967 2966 2967 2966 2965 2964 2963 2963 2961 2960 2959 2958 2956 2955 2955 2955 2954 2953 2953 2951 2950 2950 2950 2949 2948 2948 2949 2949 2950 2950
2971 2971 2971 2972 2972 2971 2971 2970 2970 2971 2971 2970 2969 2969 2968 2968 2968 2968 2967 2966 2965 2963 2962 2962 2961 2959 2957 2956 2955 2955 2954 2954 2953 2952 2952 2951 2951 2951 2949 2949 2950 2950 2949 2949
2971 2972 2972 2972 2972 2972 2973 2973 2974 2973 2972 2972 2971 2970 2969 2969 2969 2968 2967 2967 2966 2965 2963 2962 2961 2959 2958 2957 2957 2955 2954 2954 2952 2951 2950 2949 2949 2949 2949 2948 2947 2947 2947 2946
2972 2973 2974 2973 2974 2974 2974 2974 2975 2974 2974 2973 2972 2971 2970 2970 2969 2968 2968 2967 2966 2965 2964 2962 2961 2960 2958 2956 2955 2954 2953 2951 2950 2949 2948 2947 2946 2945 2945 2944 2944 2944 2943 2943
2972 2973 2974 2974 2974 2975 2976 2976 2975 2974 2974 2973 2972 2971 2970 2970 2969 2968 2967 2967 2965 2964 2963 2962 2960 2958 2957 2956 2954 2953 2951 2949 2947 2946 2944 2943 2942 2941 2940 2940 2939 2939 2939 2939
2972 2973 2974 2974 2974 2975 2975 2975 2974 2973 2973 2971 2970 2969 2968 2967 2967 2966 2966 2966 2964 2963 2962 2960 2958 2956 2955 2953 2951 2950 2948 2947 2945 2944 2942 2940 2939 2938 2937 2936 2935 2935 2935 2935
2971 2973 2974 2974 2975 2975 2974 2974 2974 2973 2972 2971 2970 2970 2970 2969 2969 2968 2967 2965 2963 2962 2960 2958 2956 2954 2952 2950 2948 2946 2944 2942 2941 2940 2938 2937 2936 2934 2933 2932 2931 2931 2930 2930
2970 2971 2972 2973 2974 2974 2973 2973 2973 2973 2972 2972 2971 2971 2970 2969 2967 2965 2964 2963 2961 2960 2958 2956 2954 2951 2949 2946 2944 2942 2940 2938 2936 2935 2933 2932 2931 2929 2927 2926 2925 2925 2925 2924
2968 2970 2971 2971 2972 2973 2972 2972 2972 2972 2972 2971 2971 2970 2969 2968 2966 2965 2963 2961 2959 2957 2955 2952 2949 2946 2944 2941 2939 2936 2934 2932 2930 2928 2926 2925 2923 2922 2921 2919 2918 2917 2917 2916
2966 2968 2969 2969 2971 2971 2971 2971 2971 2971 2972 2972 2971 2969 2967 2966 2964 2962 2960 2958 2955 2953 2949 2946 2943 2940 2937 2934 2931 2929 2926 2924 2921 2919 2918 2916 2914 2913 2912 2910 2909 2908 2907 2907
2965 2967 2968 2969 2969 2970 2971 2971 2972 2972 2972 2970 2968 2967 2965 2963 2961 2959 2956 2953 2950 2946 2943 2939 2936 2933 2930 2927 2924 2922 2919 2916 2913 2911 2909 2907 2906 2904 2902 2901 2900 2899 2898 2897
2965 2967 2968 2969 2970 2970 2971 2971 2971 2970 2969 2968 2967 2965 2962 2960 2957 2954 2950 2947 2943 2940 2936 2933 2929 2926 2923 2919 2916 2913 2910 2908 2906 2903 2901 2899 2897 2896 2894 2892 2891 2890 2889 2888
2965 2966 2967 2968 2969 2969 2970 2969 2969 2968 2967 2965 2963 2961 2958 2955 2952 2948 2945 2941 2937 2934 2930 2926 2923 2919 2915 2912 2909 2906 2903 2900 2897 2895 2893 2891 2889 2887 2886 2885 2884 2882 2881 2880
2965 2966 2967 2967 2968 2968 2968 2967 2967 2965 2963 2961 2959 2956 2952 2949 2946 2943 2939 2935 2931 2927 2923 2919 2915 2912 2908 2904 2901 2898 2895 2892 2889 2887 2885 2883 2881 2879 2878 2877 2876 2875 2874 2873
2964 2965 2965 2966 2966 2966 2966 2965 2964 2962 2960 2957 2954 2950 2947 2943 2940 2936 2932 2928 2924 2920 2916 2911 2908 2904 2900 2897 2893 2890 2887 2884 2881 2879 2877 2875 2873 2871 2869 2868 2867 2866 2865 2865
2962 2963 2963 2964 2964 2964 2964 2962 2960 2958 2955 2952 2948 2945 2941 2937 2933 2928 2924 2920 2916 2911 2907 2903 2899 2896 2892 2888 2885 2882 2879 2876 2873 2871 2868 2866 2864 2862 2861 2859 2858 2857 2856 2856
2960 2961 2961 2962 2962 2961 2960 2958 2956 2953 2950 2947 2944 2940 2935 2931 2926 2921 2917 2912 2908 2903 2899 2895 2891 2888 2884 2881 2877 2874 2871 2868 2865 2862 2860 2858 2855 2854 2852 2850 2849 2848 2847 2846
Wind_Speed
8 10 13 14 14 14 20 27 20 38 36 33 29 27 26 21 16 20 20 17 17 16 14 11 10 12 11 6 13 17 12 13 25 34 42 30 39 31 30 33 30 26 19 16
14 15 15 19 21 23 22 20 28 37 40 28 28 26 23 17 16 14 16 16 15 16 14 13 8 6 8 8 9 11 14 14 13 24 24 33 44 34 33 28 23 19 16 14
3 3 12 16 16 13 16 26 31 34 29 28 29 24 21 21 15 13 15 13 11 12 11 12 10 6 6 9 7 11 14 12 18 17 9 28 37 32 28 23 21 20 17 16
5 8 1 5 6 17 22 29 17 19 23 17 23 20 20 15 17 10 10 9 10 9 9 9 13 12 7 6 10 11 15 10 11 8 8 26 36 23 20 21 21 19 17 17
3 2 13 19 16 12 21 25 14 12 15 22 21 20 16 12 9 11 6 8 9 7 7 7 10 12 12 8 8 7 8 14 14 20 22 25 26 25 20 16 15 16 16 17
5 2 4 7 9 21 25 14 9 8 10 14 10 5 6 8 11 6 4 5 9 8 9 10 10 9 10 11 11 7 6 9 9 12 13 16 18 23 23 21 18 18 19 23
14 5 7 12 19 18 3 6 8 3 3 6 6 6 7 5 2 1 2 5 6 8 9 10 11 12 11 11 12 12 11 8 7 7 12 17 15 18 19 23 27 24 25 27
5 5 5 12 10 2 3 8 6 6 9 5 5 6 5 4 3 4 5 6 6 7 8 10 11 12 11 11 10 11 10 9 8 7 4 7 14 13 18 26 19 22 25 30
3 2 7 8 7 6 5 6 5 7 7 8 8 8 7 8 7 7 6 7 8 8 9 10 10 10 11 10 8 7 8 9 9 8 6 4 4 8 9 11 11 11 13 15
1 2 5 6 5 5 6 9 10 11 10 12 12 10 10 11 10 9 8 8 7 8 10 10 11 10 10 9 9 7 7 7 7 7 7 6 5 3 1 1 3 4 5 6
2 4 4 5 5 6 7 7 8 9 8 8 9 10 10 11 10 10 10 11 11 10 9 8 9 10 10 9 8 8 7 6 5 5 5 4 4 3 2 2 2 1 1 2
4 3 2 3 4 6 7 7 7 6 5 6 7 7 8 8 8 8 8 9 10 11 12 12 11 10 10 9 9 9 8 7 6 6 6 6 6 6 4 3 3 3 2 2
4 3 1 2 3 5 6 5 4 4 6 6 7 8 9 10 10 10 11 11 11 10 10 12 13 13 12 13 12 11 11 10 10 9 9 8 9 9 9 9 9 10 10 10
4 3 4 3 3 4 4 5 5 6 6 5 6 7 8 9 9 10 11 11 11 12 12 12 13 13 13 14 14 14 14 14 14 13 13 13 11 11 12 12 12 12 13 14
2 3 5 5 5 3 3 5 6 6 5 6 7 8 9 10 11 11 12 12 13 14 15 15 15 16 16 17 17 17 18 17 16 15 15 15 16 15 14 14 15 15 15 15
0 4 7 5 3 1 3 5 6 6 7 8 10 11 12 13 13 13 14 13 14 14 15 15 16 16 17 18 18 19 20 20 20 19 18 17 17 17 17 16 16 16 16 16
3 4 6 4 2 1 3 4 5 6 7 7 8 10 10 10 10 10 11 12 13 14 15 15 16 17 18 19 20 20 20 21 21 21 21 21 20 19 19 18 18 18 18 18
7 8 8 5 3 4 2 3 4 4 6 6 7 7 8 8 9 11 13 14 15 16 17 18 19 20 21 22 23 23 24 24 23 23 23 23 23 23 22 22 22 21 22 22
11 10 7 5 3 2 1 3 4 4 5 5 6 7 9 10 12 14 16 18 19 20 21 22 23 24 25 26 26 27 27 28 28 28 28 28 28 28 28 27 27 27 27 26
7 7 5 3 3 2 1 2 3 4 5 6 8 10 12 15 17 20 22 23 24 24 25 25 26 27 28 29 30 30 30 29 29 30 30 30 30 30 30 30 30 29 29 29
6 5 4 3 2 1 1 1 1 3 5 9 12 14 16 18 20 22 23 24 25 26 27 28 29 30 31 31 31 31 31 31 31 30 30 30 30 30 30 30 29 29 30 30
6 5 5 6 6 5 2 1 4 6 9 11 13 16 19 21 22 24 25 26 28 29 30 31 31 32 32 31 31 30 29 29 29 29 28 28 28 27 28 28 29 29 29 29
8 8 8 7 5 2 1 4 6 9 11 14 16 19 20 22 24 25 27 28 29 30 31 31 31 31 31 31 30 30 29 29 28 27 27 26 26 26 25 25 25 26 26 26
9 10 8 5 2 2 4 7 9 11 14 18 20 22 24 25 26 27 28 29 30 31 31 31 31 31 30 31 30 30 29 29 29 28 28 27 27 26 26 26 25 25 25 25
11 9 5 3 4 6 8 10 12 14 18 21 23 25 26 27 28 30 29 29 30 31 32 32 31 31 30 30 30 30 29 29 28 28 28 28 28 28 27 27 26 26 25 25
10 8 7 7 7 8 11 13 16 18 21 24 25 27 28 29 30 31 32 32 32 32 32 32 32 31 30 30 30 30 30 30 30 29 29 29 28 28 28 28 27 27 26 26
10 10 10 9 9 11 13 16 19 21 23 25 26 27 28 29 30 31 32 33 33 33 32 32 32 31 31 30 29 29 29 29 30 29 29 29 29 28 28 28 28 28 27 27
Wind_Direction
275 272 273 275 271 280 280 280 259 277 274 283 278 286 299 295 302 316 317 319 330 339 343 332 295 273 270 287 250 250 240 260 251 246 231 222 226 229 233 221 222 224 233 245
284 286 277 277 277 285 290 297 284 274 276 270 268 278 289 272 284 312 320 318 329 340 346 341 311 259 264 265 257 249 224 259 270 257 231 245 228 225 224 220 216 216 223 237
268 268 298 294 295 296 290 292 305 263 273 266 262 266 269 273 272 286 302 312 320 334 346 359 1 308 268 241 251 257 264 251 252 241 254 215 212 201 206 212 208 212 220 233
277 308 285 297 305 303 302 312 287 255 253 260 249 249 251 252 279 279 301 346 344 339 1 9 19 13 311 286 247 242 267 234 238 230 281 198 184 204 202 210 215 224 231 241
281 242 283 286 276 298 319 315 292 252 243 240 234 229 231 244 274 270 315 350 345 359 11 11 9 8 16 354 323 254 261 243 246 231 236 210 219 205 212 226 244 247 254 257
205 218 249 251 273 305 314 270 273 267 211 184 189 204 237 272 276 286 339 352 345 355 2 9 11 13 22 13 10 351 275 299 278 277 233 216 221 209 225 220 229 241 256 267
233 267 269 288 313 317 213 305 324 343 191 207 220 224 251 264 143 331 0 7 25 35 43 35 32 31 23 21 11 12 19 8 336 298 276 268 259 230 225 220 215 227 247 256
210 232 260 319 331 39 328 342 345 44 81 116 134 113 106 92 89 74 51 43 47 47 43 36 26 24 21 20 12 12 17 18 14 3 322 256 265 268 254 254 264 253 248 240
227 231 328 350 355 337 353 15 49 78 101 103 93 89 84 75 66 59 50 43 36 33 31 28 25 24 21 16 10 11 12 12 15 18 6 349 280 262 256 252 253 259 255 253
66 333 339 17 23 38 72 78 82 92 96 92 88 84 78 70 62 56 50 44 35 28 23 20 20 22 21 15 8 3 7 5 360 359 359 13 40 44 18 288 276 258 248 238
215 304 349 38 61 74 79 89 86 83 86 93 95 91 87 80 68 53 43 36 31 28 26 25 20 12 9 8 9 4 2 1 0 1 5 358 351 345 13 49 62 67 238 205
244 262 357 81 83 80 79 75 76 79 78 76 74 70 64 59 48 37 30 22 13 9 8 7 7 10 7 359 352 347 344 339 335 332 323 318 321 321 315 299 281 273 274 266
128 175 170 107 76 84 85 81 73 60 55 47 44 41 37 31 25 20 14 3 -0 1 360 353 350 349 347 344 341 338 332 327 323 317 309 306 302 295 293 284 285 289 291 290
125 151 170 155 125 108 79 51 34 29 27 23 28 26 23 18 13 9 6 358 352 348 346 348 344 340 338 334 330 326 324 323 321 317 312 305 297 292 286 282 279 276 275 275
109 184 174 157 135 108 52 24 13 17 9 13 26 25 22 14 10 6 358 351 348 348 345 340 338 335 330 327 325 322 319 317 314 312 308 304 301 298 293 288 283 279 275 272
213 186 177 164 138 89 351 346 1 15 7 8 8 4 3 0 356 354 346 343 346 345 340 337 337 333 328 326 323 320 317 315 312 309 306 302 296 291 289 287 283 279 277 275
206 212 199 184 212 323 341 358 358 0 358 3 360 354 350 346 344 340 336 342 344 343 340 336 332 328 325 323 319 316 313 310 308 305 303 300 297 293 288 283 280 278 276 273
211 207 193 195 255 290 325 346 357 351 353 353 349 342 343 345 343 340 339 337 334 329 324 321 319 316 314 311 309 307 305 303 300 297 295 294 292 289 286 284 281 277 275 273
207 204 208 202 215 261 310 341 339 352 355 358 356 343 339 337 333 327 325 322 318 314 312 311 311 309 307 305 303 300 298 297 295 293 290 288 286 284 283 283 282 281 279 278
180 186 187 175 198 221 8 3 11 21 1 342 334 334 332 330 325 319 315 312 310 309 309 309 309 307 306 305 303 302 300 297 295 293 291 290 288 286 283 281 280 279 278 276
167 178 180 181 179 163 137 93 21 341 341 340 334 327 321 315 312 309 308 308 309 310 312 312 311 309 307 305 303 302 300 299 297 295 292 289 287 286 285 284 282 280 279 279
183 190 192 184 166 150 134 34 347 331 324 319 316 315 314 313 313 313 314 315 315 315 314 312 310 309 307 306 304 303 301 299 297 295 293 291 288 286 285 285 283 281 280 278
196 187 165 152 150 144 339 320 317 314 312 313 315 317 316 316 316 316 315 315 313 312 311 310 309 308 306 305 305 303 301 300 298 297 295 293 291 289 286 284 282 281 281 280
181 168 168 165 179 267 292 302 305 310 318 322 319 318 319 320 318 317 316 314 314 312 312 311 309 308 307 306 305 304 302 300 298 297 295 293 292 290 288 286 284 282 280 278
178 178 185 216 256 280 295 303 311 319 321 321 321 321 320 319 317 316 315 314 312 313 312 311 311 311 309 307 306 305 303 302 300 298 295 294 292 290 289 287 285 282 280 279
190 203 225 249 271 289 299 310 318 320 321 321 320 319 318 317 317 317 316 316 317 315 314 314 313 313 312 310 307 305 303 301 300 298 297 295 293 291 289 287 285 284 282 281
209 227 246 265 280 291 304 311 315 317 318 319 319 319 318 318 318 317 316 316 315 315 315 315 314 313 311 309 307 304 302 300 299 297 296 295 293 290 287 286 285 283 282 280